GMT,Max TemperatureF,Mean TemperatureF,Min TemperatureF,Max Dew PointF,MeanDew PointF,Min DewpointF,Max Humidity, Mean Humidity, Min Humidity, Max Sea Level PressureIn, Mean Sea Level PressureIn, Min Sea Level PressureIn, Max VisibilityMiles, Mean VisibilityMiles, Min VisibilityMiles, Max Wind SpeedMPH, Mean Wind SpeedMPH, Max Gust SpeedMPH,PrecipitationIn, CloudCover, Events, WindDirDegrees
2012-12-1,44,41,38,43,40,37,100,94,87,30.14,30.10,30.06,12,6,4,7,4,,0.02,6,Rain,279
2012-12-2,51,45,39,52,45,39,100,98,84,30.11,29.92,29.77,11,3,1,17,10,,0.20,7,Fog-Rain,182
2012-12-3,48,44,39,48,40,37,100,87,69,29.85,29.80,29.74,12,6,3,21,11,28,0.12,4,Rain,266
2012-12-4,46,42,39,41,38,36,93,87,75,29.81,29.75,29.65,12,7,4,21,12,41,0.08,4,Rain,277
2012-12-5,44,38,32,37,34,30,100,88,66,30.07,30.00,29.83,12,7,6,14,8,,0.00,2,,282
2012-12-6,47,40,32,45,38,32,100,88,71,30.05,29.82,29.62,12,6,2,29,12,40,0.39,5,Rain,227
2012-12-7,47,42,35,41,37,34,93,81,61,30.27,30.01,29.71,16,7,6,28,14,41,0.00,2,Rain,303
2012-12-8,46,38,31,45,39,30,100,92,86,30.39,30.34,30.27,12,6,2,13,5,,0.00,6,Rain,231
2012-12-9,48,45,42,46,44,41,100,94,87,30.33,30.25,30.21,16,6,1,13,8,,0.04,6,Fog-Rain,281
2012-12-10,40,35,30,43,34,30,100,94,81,30.36,30.31,30.27,12,6,4,10,4,,0.00,4,Fog,66
2012-12-11,44,40,35,37,35,32,93,83,71,30.38,30.27,30.12,19,7,6,17,13,,0.00,6,,110
2012-12-12,47,44,42,43,40,36,93,84,69,30.12,29.86,29.65,12,6,6,20,14,,0.03,6,Rain,124
2012-12-13,48,42,37,45,38,34,100,85,70,29.66,29.43,29.06,12,6,3,23,15,,0.00,5,Rain,113
2012-12-14,47,44,42,46,44,41,100,91,82,29.00,28.80,28.71,12,6,4,31,17,40,0.08,4,Rain,198
2012-12-15,48,45,42,45,42,41,100,89,76,29.24,29.06,28.88,12,7,6,20,10,,0.08,4,Rain,201
2012-12-16,48,44,41,45,42,39,93,88,75,29.33,29.24,29.18,12,7,4,20,12,,0.08,4,Rain,185
2012-12-17,49,46,44,46,43,39,93,88,76,29.83,29.53,29.36,12,6,4,25,16,44,0.16,4,Rain,261
2012-12-18,48,44,41,45,43,41,100,92,82,29.98,29.90,29.71,16,6,1,30,9,41,0.00,6,Fog-Rain,123
2012-12-19,50,46,43,50,46,43,100,94,76,29.71,29.62,29.50,12,6,4,34,17,47,0.02,6,Rain,126
2012-12-20,46,42,39,45,43,39,100,99,93,29.60,29.51,29.47,6,3,0,12,6,,0.01,6,Fog-Rain,122
2012-12-21,48,43,38,46,41,37,100,96,85,29.81,29.68,29.50,12,6,4,23,8,,0.03,5,Fog-Rain,123
2012-12-22,57,51,45,55,52,46,100,94,77,29.49,29.30,29.15,12,6,2,28,15,40,0.24,6,Rain,176
2012-12-23,50,47,44,45,43,41,100,85,69,29.57,29.47,29.18,16,7,4,44,21,59,0.04,4,Rain,208
2012-12-24,50,46,42,45,43,39,100,88,76,29.50,29.28,29.12,16,7,6,14,10,,0.01,5,Rain,150
2012-12-25,47,43,39,43,41,39,100,92,81,29.59,29.36,29.12,16,7,6,21,7,,0.16,4,Rain,251
2012-12-26,50,46,42,46,42,39,100,86,71,29.62,29.49,29.36,12,6,2,32,14,43,0.24,4,Rain,223
2012-12-27,48,44,41,45,41,38,100,90,74,29.92,29.69,29.33,19,6,3,16,9,,0.01,5,Rain,209
2012-12-28,56,50,43,52,49,45,100,85,73,29.80,29.52,29.27,12,6,4,29,18,43,0.04,6,Rain,188
2012-12-29,46,42,39,45,38,30,93,81,65,29.50,29.35,29.24,12,7,5,26,15,37,0.12,5,Rain,221
2012-12-30,53,46,38,48,43,35,94,83,76,29.69,29.58,29.42,12,6,4,32,22,46,0.04,6,Rain,235
2012-12-31,50,46,41,50,43,37,100,88,81,29.59,29.41,29.30,12,6,3,26,17,38,0.08,4,Rain,250